User: anonymous   Login
Location: Bogis-Bossey
(46.3500°N, 6.1667°E)
Time: 07:55:18
(UTC+00:00)
Language:

ARIANE 5 R/B - Orbit

View from above orbital plane
View from above orbital plane
View from above satellite
View from above satellite

Ground track
Ground track

The orbit data is extracted from the following two-line orbital elements,

1 36125U 09073B   22266.88243689 0.00000300  00000-0  42068-4 0    02
2 36125  98.0961 341.8547 0024192 254.3173 105.6826 14.77354661    09
Epoch (UTC): 23 September 2022 21:10:42
Eccentricity: 0.0024192
inclination: 98.0961°
perigee height: 621 km
apogee height: 654 km
right ascension of ascending node: 341.8547°
argument of perigee: 254.3173°
revolutions per day: 14.77354661
mean anomaly at epoch: 105.6826°
orbit number at epoch: 0

The dashed part of the orbit path shows where the satellite is in the earth's shadow,  

DLR